| time (UTC) | temp F | wind direction | speed knots | gust knots | rain 1hr in | rain 24hr in | rain mn in | humidity % | barometer mb |
| 20260506214509 | 77 | 115 | 5.2 | 16.5 | 0.00 | 0.00 | 0.00 | 71 | 1009.8 |
| 20260506213105 | 77 | 360 | 6.1 | 13.9 | 0.00 | 0.00 | 0.00 | 71 | 1009.9 |
| 20260506211545 | 78 | 351 | 5.2 | 11.3 | 0.00 | 0.00 | 0.00 | 72 | 1009.9 |
| 20260506210047 | 78 | 26 | 5.2 | 12.2 | 0.00 | 0.00 | 0.00 | 73 | 1009.8 |
| 20260506204516 | 77 | 28 | 3.5 | 12.2 | 0.00 | 0.00 | 0.00 | 74 | 1009.8 |
| 20260506203001 | 80 | 74 | 5.2 | 11.3 | 0.00 | 0.00 | 0.00 | 74 | 1010.2 |
| 20260506201552 | 81 | 50 | 4.3 | 9.6 | 0.00 | 0.00 | 0.00 | 74 | 1010.1 |
| 20260506200039 | 80 | 134 | 0.9 | 10.4 | 0.00 | 0.00 | 0.00 | 77 | 1009.8 |
| 20260506194535 | 79 | 336 | 3.5 | 8.7 | 0.00 | 0.00 | 0.00 | 75 | 1009.8 |
| 20260506193016 | 79 | 75 | 2.6 | 7.0 | 0.00 | 0.00 | 0.00 | 77 | 1010.1 |
| 20260506191602 | 79 | 102 | 3.5 | 7.8 | 0.00 | 0.00 | 0.00 | 77 | 1010.0 |
| 20260506190051 | 79 | 259 | 3.5 | 9.6 | 0.00 | 0.00 | 0.00 | 77 | 1010.2 |
| 20260506184538 | 78 | 74 | 1.7 | 7.8 | 0.00 | 0.00 | 0.00 | 79 | 1010.3 |
| 20260506183038 | 77 | 246 | 1.7 | 8.7 | 0.00 | 0.00 | 0.00 | 80 | 1010.2 |
| 20260506181606 | 76 | 287 | 4.3 | 7.8 | 0.00 | 0.00 | 0.00 | 81 | 1010.4 |
| 20260506180053 | 74 | 68 | 1.7 | 6.1 | 0.00 | 0.00 | 0.00 | 82 | 1010.5 |
| 20260506174538 | 73 | 23 | 2.6 | 7.0 | 0.00 | 0.00 | 0.00 | 83 | 1010.7 |
| 20260506173020 | 72 | 17 | 5.2 | 10.4 | 0.00 | 0.00 | 0.00 | 83 | 1010.5 |
| 20260506171505 | 73 | 21 | 5.2 | 16.5 | 0.00 | 0.00 | 0.00 | 80 | 1011.0 |
| 20260506170106 | 80 | 351 | 5.2 | 7.8 | 0.00 | 0.00 | 0.00 | 81 | 1010.6 |
| 20260506164554 | 81 | 5 | 2.6 | 7.0 | 0.00 | 0.00 | 0.00 | 82 | 1010.7 |
| 20260506163025 | 79 | 24 | 2.6 | 6.1 | 0.00 | 0.00 | 0.00 | 86 | 1010.9 |
| 20260506161508 | 78 | 88 | 1.7 | 4.3 | 0.00 | 0.00 | 0.00 | 89 | 1011.0 |
| 20260506160105 | 76 | 142 | 1.7 | 4.3 | 0.00 | 0.00 | 0.00 | 90 | 1011.0 |
| 20260506154542 | 76 | 153 | 0.0 | 4.3 | 0.00 | 0.00 | 0.00 | 91 | 1010.8 |
| 20260506153021 | 76 | 43 | 0.0 | 4.3 | 0.00 | 0.00 | 0.00 | 91 | 1010.3 |
| 20260506151507 | 76 | 55 | 1.7 | 4.3 | 0.00 | 0.00 | 0.00 | 91 | 1010.0 |
| 20260506150107 | 76 | 68 | 0.0 | 1.7 | 0.00 | 0.00 | 0.00 | 91 | 1010.0 |
| 20260506144542 | 75 | 34 | 0.9 | 4.3 | 0.00 | 0.00 | 0.00 | 92 | 1009.7 |
| 20260506143031 | 75 | 32 | 0.0 | 3.5 | 0.00 | 0.00 | 0.00 | 92 | 1009.8 |
| 20260506141524 | 75 | 48 | 0.0 | 3.5 | 0.00 | 0.00 | 0.00 | 92 | 1009.7 |
| 20260506140105 | 75 | 36 | 0.0 | 4.3 | 0.00 | 0.00 | 0.00 | 93 | 1009.2 |
| 20260506134551 | 75 | 13 | 0.0 | 5.2 | 0.00 | 0.00 | 0.00 | 93 | 1008.9 |
| 20260506133040 | 74 | 32 | 0.9 | 3.5 | 0.00 | 0.00 | 0.00 | 92 | 1008.8 |
| 20260506131521 | 74 | 33 | 0.0 | 3.5 | 0.00 | 0.00 | 0.00 | 93 | 1008.8 |
| 20260506130005 | 74 | 50 | 1.7 | 4.3 | 0.00 | 0.00 | 0.00 | 92 | 1008.7 |
| 20260506124556 | 74 | 47 | 0.9 | 3.5 | 0.00 | 0.00 | 0.00 | 92 | 1008.8 |
| 20260506123042 | 74 | 40 | 0.0 | 1.7 | 0.00 | 0.00 | 0.00 | 91 | 1008.8 |
| 20260506121527 | 74 | 47 | 0.0 | 0.9 | 0.00 | 0.00 | 0.00 | 91 | 1008.7 |
| 20260506120025 | 74 | 128 | 0.0 | 3.5 | 0.00 | 0.00 | 0.00 | 91 | 1008.5 |
| 20260506114602 | 74 | 50 | 0.0 | 1.7 | 0.00 | 0.00 | 0.00 | 91 | 1008.5 |
| 20260506113049 | 74 | 57 | 0.0 | 0.9 | 0.00 | 0.00 | 0.00 | 91 | 1008.2 |
| 20260506111539 | 74 | 79 | 0.0 | 3.5 | 0.00 | 0.00 | 0.00 | 91 | 1008.4 |
| 20260506110024 | 75 | 105 | 0.0 | 0.0 | 0.00 | 0.00 | 0.00 | 91 | 1008.1 |
| 20260506104506 | 75 | 73 | 0.0 | 1.7 | 0.00 | 0.00 | 0.00 | 90 | 1008.0 |
| 20260506103058 | 75 | 94 | 0.0 | 1.7 | 0.00 | 0.00 | 0.00 | 90 | 1008.2 |
| 20260506101543 | 75 | 92 | 0.0 | 3.5 | 0.00 | 0.00 | 0.00 | 90 | 1007.9 |
| 20260506100028 | 75 | 119 | 0.0 | 1.7 | 0.00 | 0.00 | 0.00 | 90 | 1007.9 |
| 20260506094514 | 75 | 107 | 0.0 | 4.3 | 0.00 | 0.00 | 0.00 | 90 | 1007.9 |
| 20260506093104 | 75 | 104 | 0.0 | 3.5 | 0.00 | 0.00 | 0.00 | 90 | 1007.6 |
| 20260506091551 | 75 | 93 | 0.0 | 1.7 | 0.00 | 0.00 | 0.00 | 90 | 1007.4 |
| 20260506090037 | 75 | 78 | 0.0 | 1.7 | 0.00 | 0.00 | 0.00 | 90 | 1007.6 |
| 20260506084545 | 75 | 112 | 0.0 | 1.7 | 0.00 | 0.00 | 0.00 | 90 | 1007.7 |
| 20260506083006 | 75 | 101 | 0.0 | 0.9 | 0.00 | 0.00 | 0.00 | 90 | 1007.6 |
| 20260506081601 | 75 | 101 | 0.0 | 1.7 | 0.00 | 0.00 | 0.00 | 90 | 1007.6 |
| 20260506073014 | 75 | 155 | 0.0 | 1.7 | 0.00 | 0.00 | 0.00 | 90 | 1007.9 |
| 20260506071604 | 75 | 128 | 0.0 | 3.5 | 0.00 | 0.00 | 0.00 | 90 | 1008.1 |
| 20260506061507 | 76 | 114 | 0.0 | 5.2 | 0.00 | 0.00 | 0.00 | 89 | 1008.3 |
| 20260506050104 | 77 | 44 | 0.0 | 3.5 | 0.00 | 0.00 | 0.00 | 87 | 1008.3 |
| 20260506044547 | 77 | 89 | 1.7 | 5.2 | 0.00 | 0.00 | 0.00 | 86 | 1008.4 |
| 20260506043033 | 77 | 137 | 0.0 | 5.2 | 0.00 | 0.00 | 0.00 | 86 | 1008.3 |
| 20260506041519 | 77 | 109 | 1.7 | 4.3 | 0.00 | 0.00 | 0.00 | 86 | 1008.1 |
| 20260506040004 | 77 | 151 | 0.9 | 4.3 | 0.00 | 0.00 | 0.00 | 85 | 1008.0 |
| 20260506034557 | 78 | 121 | 1.7 | 6.1 | 0.00 | 0.00 | 0.00 | 85 | 1008.1 |
| 20260506033040 | 78 | 116 | 0.0 | 1.7 | 0.00 | 0.00 | 0.00 | 85 | 1007.6 |
| 20260506031532 | 78 | 73 | 0.9 | 5.2 | 0.00 | 0.00 | 0.00 | 84 | 1007.5 |
| 20260506030004 | 78 | 178 | 0.0 | 3.5 | 0.00 | 0.00 | 0.00 | 84 | 1007.1 |
| 20260506024555 | 78 | 102 | 0.9 | 4.3 | 0.00 | 0.00 | 0.00 | 83 | 1006.7 |
| 20260506023058 | 79 | 40 | 0.9 | 7.0 | 0.00 | 0.00 | 0.00 | 82 | 1006.6 |
| 20260506021541 | 79 | 119 | 0.9 | 7.8 | 0.00 | 0.00 | 0.00 | 82 | 1006.6 |
| 20260506020013 | 80 | 229 | 0.9 | 5.2 | 0.00 | 0.00 | 0.00 | 81 | 1006.2 |
| 20260506014606 | 81 | 149 | 0.9 | 6.1 | 0.00 | 0.00 | 0.00 | 80 | 1006.0 |
| 20260506013059 | 81 | 102 | 0.9 | 5.2 | 0.00 | 0.00 | 0.00 | 78 | 1006.0 |
| 20260506011533 | 82 | 115 | 0.0 | 2.6 | 0.00 | 0.00 | 0.00 | 77 | 1005.9 |
| 20260506010019 | 82 | 128 | 0.0 | 1.7 | 0.00 | 0.00 | 0.00 | 76 | 1005.7 |
| 20260506004505 | 83 | 128 | 0.0 | 3.5 | 0.00 | 0.00 | 0.00 | 75 | 1005.5 |
| 20260506003057 | 83 | 205 | 0.0 | 3.5 | 0.00 | 0.00 | 0.00 | 74 | 1005.5 |
| 20260506001541 | 83 | 146 | 0.0 | 0.9 | 0.00 | 0.00 | 0.00 | 74 | 1005.5 |
| 20260506000026 | 84 | 101 | 0.0 | 7.0 | 0.00 | 0.00 | 0.00 | 73 | 1005.2 |
| 20260505234514 | 84 | 129 | 0.0 | 3.5 | 0.00 | 0.00 | 0.00 | 73 | 1005.1 |
| 20260505233106 | 84 | 237 | 0.9 | 5.2 | 0.00 | 0.00 | 0.00 | 73 | 1005.0 |
| 20260505231604 | 85 | 360 | 0.0 | 6.1 | 0.00 | 0.00 | 0.00 | 72 | 1004.8 |
| 20260505230034 | 85 | 169 | 0.9 | 5.2 | 0.00 | 0.00 | 0.00 | 70 | 1004.8 |
| 20260505224518 | 85 | 206 | 2.6 | 7.0 | 0.00 | 0.00 | 0.00 | 70 | 1004.8 |
| 20260505223003 | 85 | 238 | 1.7 | 5.2 | 0.00 | 0.00 | 0.00 | 71 | 1005.0 |
| 20260505221600 | 85 | 230 | 2.6 | 9.6 | 0.00 | 0.00 | 0.00 | 69 | 1005.1 |
| 20260505220039 | 84 | 187 | 0.0 | 4.3 | 0.00 | 0.00 | 0.00 | 72 | 1005.2 |